Location: Newark
(35.2672°N, 80.7344°W)
Time: 19:11:44
(UTC+00:00)

Transit 2A Rocket - Pass Details

Date: 28 January 2020
Orbit: 592 x 911 km, 66.7° (Epoch: 19 February)

Event Time Altitude Azimuth Distance (km) Brightness Sun altitude
Rises 19:05:00 0° 331° (NNW) 3,077 7.8 32.5°
Reaches altitude 10° 19:07:15 10° 331° (NNW) 2,204 7.2 32.3°
Maximum altitude 19:12:18 80° 245° (WSW) 782 5.8 31.9°
Drops below altitude 10° 19:17:50 10° 159° (SSE) 2,407 8.2 31.3°
Sets 19:20:22 0° 158° (SSE) 3,382 8.8 31.1°
